METEOR-M

Satellite information

Favourite Embed

Satellite Type and Status

PAYLOADIN ORBIT

Key statistics

Satellite METEOR-M at a glance.

Uptime

5873

Days in orbit

Revolutions

≈ 14.2

Per day

Orbit

SSO

Sun Synchronous Orbit

Inclination

98.7

Latest

Satellite identification and parameters

Extended collection of information and parameters for METEOR-M.

Object identification

Identified? True

Debris? False

Object name: METEOR-M

International designator: 2009-049A

Object number (NORAD): 35865

Object ID (CCSDS): 35865

Country: COMMONWEALTH OF INDEPENDENT STATES (CIS)

Current information (Y/N): Y

RCS size: LARGE

Orbital parameters

Period: 101.19 minutes

Inclination: 98.7032 deg

SMA: 7193.137 km

Apoapsis: 816.02 km

Periapsis: 813.985 km

RAAN: 248.5504 deg

Eccentricy: 0.00014147

Argument of periapsis: 321.6834 deg

Mean anomaly: 38.4244 deg

Mean motion: 14.23066657 rev/day

Mean motion (dot): 0.00000197 rev/day2

B* drag term: 0.00010699867 1/REarth

Two-line elements (TLE)

Creation date: Oct. 16, 2025, 2:37 a.m.

Reference frame: TEME

Reference center: EARTH

Epoch: Oct. 15, 2025, 7:49 p.m. UTC

TLE line 0: 0 METEOR-M

TLE line 1: 1 35865U 09049A 25288.82573737 .00000197 00000-0 10700-3 0 9994

TLE line 2: 2 35865 98.7032 248.5504 0001415 321.6834 38.4244 14.23066657834497

Live tracking on map

Real-time ground track for satellite METEOR-M.

In-orbit conjunctions

There are no conjunctions computed for METEOR-M, at the moment. Check back to stay up to date, as we update our databases every day.

Go to all conjunctions

Associated space launch

Russian meteorology satellite

METEOR-M was lifted into orbit during the mission ‘Soyuz 2.1b/Fregat | Meteor-M 1’, on board a Soyuz 2.1b/Fregat space rocket.

The launch took place on Sept. 17, 2009, 3:55 p.m. from 31/6.

For more information about the launch, click the button.

Launch to space Soyuz 2.1b/Fregat | Meteor-M 1
Soyuz 2.1b/Fregat | Meteor-M 1

Agency: N/A

Status: Launch Successful

Launch date: Sept. 17, 2009, 3:55 p.m. UTC

Rocket: Soyuz 2.1b/Fregat

Launch pad: 31/6

Location: Baikonur Cosmodrome, Republic of Kazakhstan

...

Latest news about this satellite

There are no fresh news available about this satellite. Check back as we update our databases every day.


Newsletter sign-up

Weekly statistics, charts and insights to help you stay on top of the space industry.